Location: Eekwerd
(53.3234°N, 6.7984°E)
Time: 20:34:50
(UTC+00:00)

MetOp-A - Pass Details

Date: 15 May 2026
Orbit: 519 x 765 km, 98.3° (Epoch: 8 June)

Event Time Altitude Azimuth Distance (km) Brightness Sun altitude
Exits shadow 23:42:54 32° 195° (SSW) 1,212 4.5 -17.6°
Maximum altitude 23:44:55 56° 258° (WSW) 833 4.1 -17.5°
Drops below altitude 10° 23:49:29 10° 338° (NNW) 2,105 7.2 -17.5°
Sets 23:51:41 0° 342° (NNW) 2,983 8.3 -17.5°
